LEDSAT (49069 NORAD) Tracking and Keplerian Element Data

This shows tracking and keplerian element data for the satellite.

Feedback or suggestion? Click here.




ElementValue
Catalog49069
NameLEDSAT
Epoch Orbit1077
Epoch Day300.77957679
Epoch Year2021
RAAN13.2286
Inclination97.5515
Eccentricity0.0028358
Argument of Perigee13.6914
Mean Anonmoly346.5077
Mean Motion15.07239222
Decay Rate1.155E-05
L11 49069U 21073D 21300.77957679 .00001155 00000-0 80140-4 0 9993
L22 49069 97.5515 13.2286 0028358 13.6914 346.5077 15.07239222 10774

Live tracking and technical data element details for LEDSAT (NORAD 49069). LEDSAT can be tracked NOW for your location showing map with azimuth and elevation plus other details from your city location.

Track the satellite on the map from your city or location and see movement details for azimuth, elevation, latitude, longitude, range, height, and movement on the map or in text.







IsCatalogInMostPopularTable: catalog: 49069, numindb: 10
Update: records affected: 1



GetName: 49069 LEDSAT

Hit Count: updated at: Thu, 28 Oct 2021 11:37:46 GMT